"startDT [UTC]","vpos","CH4 [ppm]","stdev(CH4) [ppm]","CO2 [ppm]","stdev(CO2) [ppm]","H2O [ppm]","stdev(H2O)","p_LGR [torr]","T_LGR [C]","mt1_LGR [us]","mt2_LGR [us]","T_ECpre [C]","T_EC1 [C]","T_EC2 [C]","p_inlet [hPa]","p_in [hPa]","p_out [hPa]","T_inlet [C]","RH_inlet [%]","dwpt_inlet [C]","T_vent [C]","RH_vent [%]","dwpt_vent [C]","flow_vent [l min-1]","flow_inlet [l min-1]","dwpt_sample [C]","T_room [C]"
2012-04-20 00:00:00,0.0,1.9104,0.0010,403.18,0.33,94.4,31.5,138.13,28.31,24.61,36.31,0.04,-272.74,-272.73,-54,559,-941,22.9,3.7,-22.2,22.8,3.8,-21.8,5.73,2.38,-26.8,25.8
2012-04-20 00:01:00,0.0,1.9103,0.0009,402.87,0.36,79.5,39.3,138.14,28.29,24.61,36.32,0.04,-272.73,-272.73,-55,558,-940,22.8,3.7,-22.4,22.8,3.8,-22.0,5.73,2.39,-26.9,25.7
2012-04-20 00:02:00,0.0,1.9102,0.0010,402.73,0.35,74.1,36.8,138.14,28.27,24.61,36.32,0.04,-272.74,-272.74,-55,558,-940,22.8,3.6,-22.5,22.8,3.8,-22.1,5.73,2.40,-27.0,25.5
2012-04-20 00:03:00,0.0,1.9106,0.0010,402.66,0.29,51.2,31.2,138.15,28.25,24.61,36.31,0.04,-272.74,-272.74,-55,558,-941,22.7,3.6,-22.7,22.7,3.7,-22.3,5.73,2.40,-27.1,25.4
2012-04-20 00:04:00,0.0,1.9098,0.0011,402.47,0.32,41.2,28.8,138.15,28.23,24.61,36.32,0.04,-272.73,-272.74,-55,558,-941,22.7,3.6,-22.8,22.7,3.7,-22.4,5.73,2.41,-27.2,25.2
2012-04-20 00:05:00,0.0,1.9090,0.0009,402.50,0.30,40.3,32.8,138.15,28.20,24.61,36.31,0.04,-272.73,-272.74,-55,557,-940,22.7,3.6,-22.8,22.6,3.7,-22.4,5.73,2.41,-27.3,25.7
2012-04-20 00:06:00,0.0,1.9087,0.0008,402.32,0.34,37.4,29.9,138.15,28.18,24.61,36.32,0.04,-272.74,-272.74,-55,557,-940,22.7,3.6,-22.7,22.6,3.7,-22.3,5.73,2.51,-27.2,26.2
2012-04-20 00:07:00,0.0,1.9085,0.0008,402.39,0.25,44.3,31.1,138.14,28.17,24.61,36.31,0.04,-272.74,-272.74,-53,557,-941,22.7,3.6,-22.6,22.6,3.8,-22.2,5.73,2.36,-27.1,26.5
2012-04-20 00:08:00,0.0,1.9087,0.0009,402.43,0.30,47.0,37.3,138.14,28.16,24.61,36.31,0.04,-272.74,-272.74,-56,557,-942,22.7,3.7,-22.5,22.7,3.8,-22.1,5.73,2.40,-27.1,26.8
2012-04-20 00:09:00,0.0,1.9090,0.0010,402.48,0.32,60.5,34.7,138.14,28.16,24.61,36.32,0.04,-272.73,-272.74,-55,557,-940,22.7,3.7,-22.4,22.7,3.8,-22.0,5.73,2.41,-27.0,27.0
2012-04-20 00:10:00,0.0,1.9088,0.0008,402.64,0.33,66.5,37.2,138.13,28.16,24.61,36.32,0.04,-272.73,-272.74,-54,557,-940,22.7,3.7,-22.2,22.7,3.9,-21.9,5.73,2.41,-26.9,27.1
2012-04-20 00:11:00,0.0,1.9090,0.0010,402.70,0.30,83.1,35.4,138.13,28.17,24.61,36.32,0.04,-272.73,-272.74,-55,557,-940,22.7,3.8,-22.2,22.7,3.9,-21.8,5.73,2.37,-26.8,27.2
2012-04-20 00:12:00,0.0,1.9092,0.0009,402.77,0.34,90.8,34.1,138.13,28.17,24.61,36.31,0.04,-272.74,-272.74,-54,557,-939,22.7,3.8,-22.1,22.8,3.9,-21.6,5.73,2.47,-26.7,27.3
2012-04-20 00:13:00,0.0,1.9093,0.0009,402.81,0.33,88.0,35.6,138.12,28.18,24.61,36.32,0.04,-272.74,-272.74,-54,557,-940,22.7,3.8,-22.0,22.8,3.9,-21.6,5.73,2.30,-26.6,27.4
2012-04-20 00:14:00,0.0,1.9099,0.0009,402.96,0.30,101.8,36.7,138.12,28.20,24.61,36.32,0.04,-272.74,-272.74,-54,557,-940,22.8,3.8,-22.0,22.8,3.9,-21.5,5.73,2.51,-26.5,27.5
2012-04-20 00:15:00,0.0,1.9100,0.0009,402.93,0.34,99.1,39.8,138.12,28.21,24.61,36.32,0.04,-272.74,-272.74,-54,557,-939,22.8,3.8,-21.9,22.8,4.0,-21.5,5.73,2.30,-26.5,27.5
2012-04-20 00:16:00,0.0,1.9097,0.0008,402.95,0.35,107.3,33.3,138.12,28.22,24.61,36.32,0.04,-272.74,-272.74,-54,557,-940,22.8,3.8,-22.0,22.9,3.9,-21.5,5.73,2.47,-26.4,27.6
2012-04-20 00:17:00,0.0,1.9099,0.0009,402.84,0.34,120.0,34.8,138.12,28.23,24.61,36.32,0.04,-272.73,-272.74,-54,557,-940,22.9,3.8,-21.9,22.9,3.9,-21.5,5.73,2.39,-26.3,27.7
2012-04-20 00:18:00,0.0,1.9100,0.0010,402.87,0.34,118.6,28.5,138.11,28.25,24.61,36.33,0.04,-272.73,-272.74,-54,557,-940,22.9,3.8,-22.0,22.9,3.9,-21.5,5.73,2.34,-26.3,27.7
2012-04-20 00:19:00,0.0,1.9101,0.0008,402.96,0.32,129.8,35.5,138.11,28.26,24.61,36.32,0.04,-272.73,-272.74,-54,557,-940,22.9,3.8,-21.9,22.9,3.9,-21.5,5.73,2.49,-26.2,27.7
2012-04-20 00:20:00,0.0,1.9104,0.0009,402.97,0.33,135.5,41.3,138.11,28.28,24.61,36.33,0.04,-272.74,-272.74,-54,557,-940,22.9,3.8,-22.0,23.0,3.9,-21.5,5.73,2.30,-26.1,27.8
2012-04-20 00:21:00,0.0,1.9105,0.0010,403.12,0.36,137.7,44.8,138.11,28.29,24.61,36.31,0.04,-272.74,-272.74,-54,558,-940,22.9,3.8,-21.9,23.0,3.9,-21.5,5.73,2.46,-26.1,27.9
2012-04-20 00:22:00,0.0,1.9106,0.0009,403.01,0.37,135.0,37.2,138.11,28.30,24.61,36.32,0.04,-272.74,-272.74,-54,558,-940,23.0,3.8,-21.8,23.0,4.0,-21.4,5.73,2.41,-26.0,27.9
2012-04-20 00:23:00,0.0,1.9104,0.0009,403.03,0.33,141.0,35.2,138.10,28.32,24.62,36.33,0.04,-272.74,-272.74,-54,558,-939,23.0,3.8,-21.7,23.1,4.0,-21.3,5.73,2.32,-26.0,28.0
2012-04-20 00:24:00,0.0,1.9107,0.0011,403.03,0.35,137.4,33.0,138.10,28.34,24.61,36.32,0.04,-272.74,-272.74,-54,558,-940,23.1,3.9,-21.6,23.1,4.0,-21.2,5.73,2.50,-25.9,27.8
2012-04-20 00:25:00,0.0,1.9107,0.0009,403.13,0.35,137.3,33.1,138.11,28.35,24.61,36.32,0.04,-272.74,-272.73,-54,558,-940,23.1,3.9,-21.5,23.1,4.0,-21.1,5.73,2.28,-25.9,27.2
2012-04-20 00:26:00,0.0,1.9103,0.0010,403.03,0.34,132.6,32.4,138.11,28.36,24.62,36.33,0.04,-272.74,-272.74,-54,559,-940,23.1,3.9,-21.4,23.1,4.1,-20.9,5.73,2.44,-26.0,26.8
2012-04-20 00:27:00,0.0,1.9104,0.0010,402.96,0.32,123.9,45.0,138.12,28.36,24.62,36.33,0.04,-272.74,-272.74,-54,559,-940,23.1,4.0,-21.2,23.1,4.2,-20.8,5.73,2.48,-26.1,26.6
2012-04-20 00:28:00,0.0,1.9104,0.0011,403.10,0.34,117.3,39.4,138.12,28.35,24.62,36.32,0.04,-272.74,-272.73,-54,559,-940,23.0,4.1,-21.1,23.0,4.2,-20.7,5.73,2.44,-26.2,26.4
2012-04-20 00:29:00,0.0,1.9100,0.0010,403.05,0.37,113.6,34.9,138.13,28.35,24.62,36.32,0.04,-272.73,-272.74,-55,559,-940,23.0,4.1,-21.0,23.0,4.2,-20.6,5.73,2.40,-26.4,26.0
2012-04-20 00:30:00,0.0,1.9101,0.0009,402.93,0.35,101.4,34.2,138.13,28.33,24.62,36.32,0.04,-272.74,-272.74,-55,559,-940,22.9,4.1,-21.0,22.9,4.2,-20.6,5.73,2.38,-26.5,25.8
2012-04-20 00:31:00,0.0,1.9105,0.0012,402.89,0.37,84.2,33.6,138.14,28.32,24.61,36.31,0.04,-272.74,-272.74,-55,559,-941,22.9,4.1,-21.0,22.8,4.3,-20.6,5.73,2.38,-26.6,25.7
2012-04-20 00:32:00,0.0,1.9098,0.0009,402.81,0.35,90.6,40.5,138.14,28.30,24.62,36.31,0.04,-272.73,-272.74,-55,558,-940,22.9,4.1,-21.0,22.8,4.3,-20.6,5.73,2.38,-26.7,25.5
2012-04-20 00:33:00,0.0,1.9095,0.0010,402.56,0.32,66.7,35.0,138.14,28.28,24.62,36.32,0.04,-272.74,-272.74,-55,558,-940,22.8,4.2,-20.9,22.7,4.3,-20.6,5.73,2.39,-26.8,25.5
2012-04-20 00:34:00,0.0,1.9092,0.0010,402.40,0.39,53.7,34.5,138.15,28.25,24.61,36.32,0.04,-272.74,-272.74,-55,558,-941,22.8,4.2,-20.9,22.7,4.3,-20.6,5.73,2.39,-26.9,25.4
2012-04-20 00:35:00,0.0,1.9083,0.0008,402.43,0.33,63.5,28.2,138.15,28.23,24.62,36.31,0.04,-272.74,-272.74,-55,558,-940,22.7,4.2,-20.9,22.7,4.4,-20.5,5.73,2.37,-26.9,25.8
2012-04-20 00:36:00,0.0,1.9085,0.0010,402.39,0.26,65.3,38.4,138.15,28.21,24.62,36.31,0.04,-272.74,-272.74,-55,558,-940,22.7,4.2,-20.8,22.7,4.4,-20.5,5.73,2.50,-26.9,26.3
2012-04-20 00:37:00,0.0,1.9085,0.0010,402.29,0.29,75.5,37.7,138.14,28.20,24.62,36.32,0.04,-272.74,-272.74,-55,557,-940,22.7,4.2,-20.8,22.7,4.4,-20.4,5.73,2.38,-26.8,26.6
2012-04-20 00:38:00,0.0,1.9094,0.0010,402.53,0.35,76.3,34.0,138.14,28.20,24.61,36.31,0.04,-272.73,-272.73,-53,558,-940,22.7,4.3,-20.7,22.7,4.4,-20.3,5.73,2.39,-26.7,26.9
2012-04-20 00:39:00,0.0,1.9092,0.0010,402.58,0.43,94.4,41.9,138.13,28.20,24.61,36.32,0.04,-272.74,-272.73,-55,558,-940,22.8,4.3,-20.7,22.8,4.4,-20.3,5.73,2.41,-26.6,27.0
2012-04-20 00:40:00,0.0,1.9094,0.0009,402.56,0.36,97.8,34.0,138.13,28.20,24.61,36.32,0.04,-272.74,-272.74,-55,557,-940,22.8,4.3,-20.6,22.8,4.4,-20.2,5.73,2.42,-26.5,27.2
2012-04-20 00:41:00,0.0,1.9095,0.0008,402.76,0.30,101.5,32.5,138.13,28.21,24.61,36.32,0.04,-272.74,-272.73,-55,558,-940,22.8,4.3,-20.6,22.8,4.4,-20.2,5.73,2.34,-26.4,27.3
2012-04-20 00:42:00,0.0,1.9097,0.0009,402.84,0.30,99.6,39.8,138.12,28.21,24.61,36.32,0.04,-272.74,-272.74,-54,557,-940,22.8,4.3,-20.5,22.8,4.5,-20.1,5.73,2.49,-26.3,27.4
2012-04-20 00:43:00,0.0,1.9097,0.0008,402.93,0.34,119.4,33.9,138.12,28.23,24.61,36.32,0.04,-272.74,-272.74,-54,558,-940,22.9,4.3,-20.5,22.9,4.4,-20.1,5.73,2.29,-26.2,27.5
2012-04-20 00:44:00,0.0,1.9103,0.0009,402.96,0.31,109.7,33.6,138.12,28.24,24.61,36.32,0.04,-272.74,-272.73,-54,557,-939,22.9,4.3,-20.6,22.9,4.4,-20.1,5.73,2.49,-26.2,27.6
2012-04-20 00:45:00,0.0,1.9104,0.0009,402.79,0.36,118.9,37.4,138.12,28.25,24.61,36.32,0.04,-272.73,-272.74,-54,558,-940,22.9,4.3,-20.6,22.9,4.4,-20.1,5.73,2.35,-26.1,27.6
2012-04-20 00:46:00,0.0,1.9096,0.0009,402.84,0.35,134.5,35.1,138.11,28.26,24.62,36.32,0.04,-272.74,-272.74,-56,558,-942,22.9,4.2,-20.6,23.0,4.4,-20.2,5.73,2.39,-26.0,27.7
2012-04-20 00:47:00,0.0,1.9097,0.0009,402.83,0.39,133.2,34.5,138.11,28.28,24.61,36.32,0.04,-272.74,-272.74,-54,558,-939,22.9,4.2,-20.7,23.0,4.4,-20.2,5.73,2.47,-25.9,27.7
2012-04-20 00:48:00,0.0,1.9094,0.0009,402.73,0.31,147.5,29.1,138.11,28.29,24.62,36.33,0.27,-270.84,-272.41,-55,558,-940,23.0,4.2,-20.7,23.0,4.4,-20.2,5.42,2.38,-30.2,27.8
2012-04-20 00:49:00,0.0,1.9106,0.0009,402.82,0.40,145.4,38.6,138.11,28.31,24.61,36.32,0.04,-272.74,-272.74,-54,558,-939,23.0,4.2,-20.7,23.0,4.4,-20.2,5.73,2.48,-25.8,27.9
2012-04-20 00:50:00,0.0,1.9100,0.0008,402.82,0.32,154.6,42.4,138.11,28.32,24.61,36.32,0.04,-272.74,-272.74,-54,558,-940,23.1,4.2,-20.7,23.1,4.3,-20.3,5.73,2.37,-25.8,27.9
2012-04-20 00:51:00,0.0,1.9096,0.0010,402.73,0.30,157.9,31.0,138.10,28.34,24.61,36.33,0.04,-272.74,-272.74,-54,558,-940,23.1,4.2,-20.7,23.1,4.3,-20.3,5.73,2.35,-25.7,28.0
2012-04-20 00:52:00,0.0,1.9101,0.0009,402.84,0.38,161.2,38.3,138.10,28.35,24.62,36.33,0.04,-272.74,-272.74,-54,558,-939,23.1,4.2,-20.7,23.1,4.3,-20.3,5.73,2.49,-25.6,28.1
2012-04-20 00:53:00,0.0,1.9109,0.0010,402.94,0.32,165.3,39.3,138.10,28.37,24.62,36.32,0.04,-272.74,-272.74,-54,558,-940,23.2,4.2,-20.7,23.2,4.3,-20.2,5.73,2.29,-25.6,27.8
2012-04-20 00:54:00,0.0,1.9109,0.0010,402.93,0.35,147.5,35.5,138.11,28.38,24.61,36.33,0.04,-272.74,-272.74,-54,559,-940,23.2,4.2,-20.6,23.2,4.3,-20.2,5.73,2.51,-25.6,27.2
2012-04-20 00:55:00,0.0,1.9108,0.0011,403.03,0.39,154.7,35.9,138.11,28.39,24.62,36.32,0.04,-272.74,-272.73,-54,559,-940,23.1,4.2,-20.6,23.2,4.4,-20.2,5.73,2.36,-25.7,26.8
2012-04-20 00:56:00,0.0,1.9099,0.0010,402.90,0.39,142.7,38.6,138.12,28.39,24.62,36.32,0.04,-272.74,-272.74,-54,559,-940,23.1,4.2,-20.6,23.1,4.4,-20.2,5.73,2.33,-25.8,26.5
2012-04-20 00:57:00,0.0,1.9100,0.0009,402.97,0.34,131.5,43.1,138.12,28.39,24.62,36.32,0.04,-272.74,-272.74,-54,559,-940,23.1,4.2,-20.7,23.1,4.4,-20.2,5.73,2.38,-25.9,26.2
2012-04-20 00:58:00,0.0,1.9108,0.0011,403.03,0.33,126.3,42.6,138.12,28.38,24.62,36.32,0.04,-272.73,-272.74,-55,559,-940,23.0,4.2,-20.7,23.0,4.4,-20.2,5.73,2.43,-26.0,26.2
2012-04-20 00:59:00,0.0,1.9099,0.0008,403.06,0.35,120.3,35.6,138.13,28.37,24.62,36.32,0.04,-272.74,-272.74,-55,559,-940,23.0,4.2,-20.7,23.0,4.4,-20.3,5.73,2.44,-26.1,25.9
2012-04-20 01:00:00,0.0,1.9103,0.0009,402.87,0.30,106.2,39.7,138.13,28.35,24.61,36.32,0.04,-272.74,-272.74,-55,559,-941,23.0,4.2,-20.7,22.9,4.4,-20.3,5.73,2.45,-26.2,25.8
2012-04-20 01:01:00,0.0,1.9099,0.0009,402.72,0.30,103.0,42.8,138.14,28.33,24.62,36.32,0.04,-272.74,-272.74,-55,558,-940,22.9,4.2,-20.8,22.9,4.4,-20.3,5.73,2.44,-26.3,25.7
2012-04-20 01:02:00,0.0,1.9097,0.0010,402.55,0.36,97.4,36.2,138.14,28.31,24.62,36.32,0.04,-272.73,-272.74,-55,559,-940,22.9,4.2,-20.7,22.8,4.4,-20.4,5.73,2.43,-26.4,25.5
2012-04-20 01:03:00,0.0,1.9095,0.0009,402.54,0.28,81.8,33.7,138.15,28.29,24.62,36.31,0.04,-272.74,-272.74,-55,559,-941,22.9,4.2,-20.7,22.8,4.4,-20.3,5.73,2.41,-26.4,25.4
2012-04-20 01:04:00,0.0,1.9091,0.0010,402.46,0.37,72.5,29.7,138.15,28.27,24.61,36.32,0.04,-272.74,-272.74,-55,558,-940,22.9,4.2,-20.7,22.7,4.4,-20.3,5.73,2.37,-26.5,25.8
2012-04-20 01:05:00,0.0,1.9089,0.0008,402.50,0.36,77.3,38.2,138.14,28.26,24.62,36.31,0.04,-272.73,-272.74,-55,558,-940,22.9,4.2,-20.7,22.7,4.4,-20.4,5.73,2.30,-26.5,26.3
2012-04-20 01:06:00,0.0,1.9094,0.0008,402.56,0.30,91.3,38.4,138.14,28.25,24.61,36.31,0.04,-272.74,-272.74,-55,558,-940,22.9,4.2,-20.7,22.8,4.4,-20.3,5.73,2.51,-26.4,26.7
2012-04-20 01:07:00,0.0,1.9092,0.0010,402.65,0.36,100.2,35.0,138.14,28.24,24.61,36.32,0.04,-272.74,-272.74,-55,558,-940,22.9,4.3,-20.6,22.8,4.4,-20.2,5.73,2.30,-26.3,26.9
2012-04-20 01:08:00,0.0,1.9096,0.0009,402.70,0.30,105.5,32.5,138.13,28.24,24.61,36.32,0.04,-272.74,-272.73,-54,558,-940,22.9,4.3,-20.5,22.9,4.5,-20.1,5.73,2.50,-26.2,27.1
2012-04-20 01:09:00,0.0,1.9097,0.0008,402.73,0.36,114.7,34.8,138.13,28.24,24.61,36.32,0.04,-272.74,-272.73,-55,558,-940,22.9,4.3,-20.4,22.9,4.5,-20.0,5.73,2.29,-26.1,27.2
2012-04-20 01:10:00,0.0,1.9094,0.0009,402.78,0.30,120.8,34.5,138.13,28.25,24.61,36.32,0.04,-272.74,-272.74,-54,558,-940,22.9,4.3,-20.4,22.9,4.5,-20.0,5.73,2.50,-26.0,27.4
2012-04-20 01:11:00,0.0,1.9095,0.0010,402.84,0.29,119.6,33.9,138.12,28.26,24.61,36.32,0.04,-272.74,-272.74,-55,558,-940,23.0,4.3,-20.4,22.9,4.5,-20.0,5.73,2.32,-25.9,27.5
2012-04-20 01:12:00,0.0,1.9096,0.0011,402.81,0.33,137.9,37.5,138.12,28.27,24.61,36.32,0.04,-272.74,-272.74,-54,558,-939,23.0,4.3,-20.4,23.0,4.5,-20.0,5.73,2.43,-25.9,27.6
2012-04-20 01:13:00,0.0,1.9093,0.0010,402.87,0.32,146.5,34.3,138.11,28.28,24.61,36.32,0.04,-272.73,-272.74,-55,558,-940,23.0,4.3,-20.4,23.0,4.5,-20.0,5.73,2.43,-25.8,27.6
2012-04-20 01:14:00,0.0,1.9088,0.0009,402.85,0.31,148.3,39.7,138.11,28.30,24.62,36.33,0.04,-272.74,-272.74,-54,558,-939,23.0,4.3,-20.4,23.0,4.5,-19.9,5.73,2.31,-25.7,27.7
2012-04-20 01:15:00,0.0,1.9091,0.0010,402.88,0.28,148.7,36.8,138.11,28.31,24.62,36.32,0.04,-272.74,-272.74,-55,558,-939,23.1,4.3,-20.4,23.1,4.5,-19.9,5.73,2.50,-25.6,27.8
2012-04-20 01:16:00,0.0,1.9091,0.0008,402.89,0.40,162.9,35.7,138.11,28.33,24.62,36.32,0.04,-272.73,-272.74,-54,558,-939,23.1,4.3,-20.4,23.1,4.5,-19.9,5.73,2.32,-25.5,27.9
2012-04-20 01:17:00,0.0,1.9092,0.0011,402.98,0.40,155.8,35.0,138.11,28.34,24.62,36.32,0.04,-272.74,-272.74,-55,558,-940,23.1,4.3,-20.3,23.1,4.4,-19.9,5.73,2.41,-25.5,27.9
2012-04-20 01:18:00,0.0,1.9098,0.0010,402.90,0.38,166.3,37.5,138.10,28.36,24.61,36.32,0.04,-272.74,-272.74,-54,558,-939,23.2,4.3,-20.3,23.2,4.5,-19.8,5.73,2.45,-25.4,28.0
2012-04-20 01:19:00,0.0,1.9100,0.0010,402.86,0.37,172.3,37.3,138.10,28.37,24.61,36.33,0.04,-272.73,-272.74,-55,559,-940,23.2,4.4,-20.1,23.2,4.5,-19.7,5.73,2.30,-25.4,28.1
2012-04-20 01:20:00,0.0,1.9102,0.0011,402.82,0.35,165.8,38.3,138.10,28.39,24.61,36.33,0.04,-272.74,-272.74,-55,559,-940,23.2,4.4,-20.0,23.2,4.5,-19.6,5.73,2.48,-25.3,28.0
2012-04-20 01:21:00,0.0,1.9099,0.0009,402.89,0.38,180.4,46.9,138.10,28.41,24.62,36.33,0.04,-272.74,-272.73,-54,559,-940,23.3,4.4,-20.0,23.3,4.6,-19.6,5.73,2.31,-25.2,27.5
2012-04-20 01:22:00,0.0,1.9101,0.0010,402.99,0.34,174.8,36.0,138.11,28.42,24.62,36.33,0.04,-272.73,-272.73,-54,559,-940,23.3,4.4,-19.9,23.2,4.6,-19.5,5.73,2.51,-25.3,27.1
2012-04-20 01:23:00,0.0,1.9098,0.0011,402.85,0.39,166.0,35.8,138.11,28.43,24.62,36.33,0.04,-272.74,-272.74,-55,559,-940,23.2,4.5,-19.8,23.2,4.6,-19.4,5.73,2.40,-25.4,26.7
2012-04-20 01:24:00,0.0,1.9100,0.0010,402.99,0.36,165.5,37.2,138.12,28.43,24.61,36.32,0.04,-272.74,-272.74,-55,559,-940,23.2,4.5,-19.8,23.1,4.7,-19.4,5.73,2.33,-25.5,26.5
2012-04-20 01:25:00,0.0,1.9096,0.0009,403.01,0.35,154.9,39.1,138.12,28.42,24.62,36.33,0.04,-272.73,-272.73,-55,560,-941,23.2,4.5,-19.7,23.1,4.7,-19.3,5.73,2.35,-25.6,26.2
2012-04-20 01:26:00,0.0,1.9098,0.0010,403.05,0.35,147.6,44.2,138.13,28.41,24.61,36.32,0.04,-272.74,-272.74,-55,559,-940,23.1,4.6,-19.6,23.1,4.7,-19.3,5.73,2.39,-25.7,26.1
2012-04-20 01:27:00,0.0,1.9101,0.0010,402.96,0.29,132.3,33.8,138.13,28.40,24.62,36.32,0.04,-272.74,-272.74,-55,560,-941,23.1,4.6,-19.6,23.0,4.8,-19.2,5.73,2.42,-25.7,25.9
2012-04-20 01:28:00,0.0,1.9097,0.0009,402.91,0.37,122.0,36.6,138.14,28.38,24.62,36.32,0.04,-272.74,-272.74,-55,559,-940,23.1,4.6,-19.5,23.0,4.8,-19.1,5.73,2.44,-25.9,25.8
2012-04-20 01:29:00,0.0,1.9097,0.0009,402.74,0.41,101.6,40.3,138.14,28.37,24.62,36.32,0.04,-272.74,-272.73,-55,560,-941,23.0,4.7,-19.4,23.0,4.9,-19.1,5.73,2.44,-26.0,25.8
2012-04-20 01:30:00,0.0,1.9095,0.0010,402.71,0.37,103.3,39.7,138.14,28.35,24.62,36.32,0.04,-272.74,-272.74,-55,559,-940,23.0,4.7,-19.4,22.9,4.9,-19.1,5.73,2.43,-26.1,25.7
2012-04-20 01:31:00,0.0,1.9098,0.0009,402.56,0.26,96.2,30.8,138.14,28.33,24.62,36.32,0.04,-272.74,-272.73,-55,559,-940,23.0,4.7,-19.4,22.9,4.9,-19.1,5.73,2.42,-26.1,25.6
2012-04-20 01:32:00,0.0,1.9095,0.0009,402.58,0.37,93.2,33.7,138.15,28.31,24.62,36.31,0.04,-272.74,-272.74,-55,559,-940,22.9,4.7,-19.5,22.8,4.9,-19.1,5.73,2.37,-26.2,26.0
2012-04-20 01:33:00,0.0,1.9094,0.0008,402.49,0.28,94.4,28.2,138.14,28.30,24.62,36.32,0.04,-272.74,-272.74,-55,559,-940,22.9,4.7,-19.5,22.8,4.9,-19.1,5.73,2.29,-26.1,26.5
2012-04-20 01:34:00,0.0,1.9095,0.0011,402.64,0.29,108.5,31.8,138.14,28.29,24.61,36.32,0.04,-272.74,-272.74,-55,558,-940,22.9,4.7,-19.5,22.9,4.9,-19.1,5.73,2.51,-26.0,26.8
2012-04-20 01:35:00,0.0,1.9094,0.0009,402.67,0.33,114.2,37.6,138.13,28.28,24.61,36.32,0.04,-272.74,-272.74,-55,558,-940,23.0,4.7,-19.4,22.9,4.9,-19.1,5.73,2.30,-25.9,27.1
2012-04-20 01:36:00,0.0,1.9093,0.0011,402.77,0.31,130.0,30.3,138.13,28.28,24.62,36.32,0.04,-272.73,-272.73,-55,558,-940,23.0,4.7,-19.4,22.9,4.9,-19.0,5.73,2.51,-25.9,27.2
2012-04-20 01:37:00,0.0,1.9095,0.0009,402.87,0.32,133.5,32.0,138.13,28.29,24.62,36.32,0.04,-272.74,-272.73,-55,559,-940,23.0,4.7,-19.4,23.0,4.9,-19.0,5.73,2.29,-25.7,27.4
2012-04-20 01:38:00,0.0,1.9098,0.0012,402.88,0.36,136.4,40.2,138.12,28.30,24.62,36.32,0.04,-272.74,-272.74,-55,558,-940,23.1,4.7,-19.5,23.0,4.8,-19.1,5.73,2.48,-25.7,27.5
2012-04-20 01:39:00,0.0,1.9102,0.0010,402.78,0.34,142.8,37.1,138.12,28.31,24.61,36.33,0.04,-272.74,-272.74,-55,559,-940,23.1,4.7,-19.4,23.1,4.9,-19.0,5.73,2.36,-25.6,27.6
2012-04-20 01:40:00,0.0,1.9094,0.0010,402.84,0.36,162.9,37.0,138.11,28.32,24.62,36.32,0.04,-272.74,-272.73,-55,559,-940,23.1,4.7,-19.3,23.1,4.9,-18.9,5.73,2.37,-25.5,27.7
2012-04-20 01:41:00,0.0,1.9100,0.0010,402.73,0.27,162.9,35.6,138.11,28.34,24.62,36.32,0.04,-272.74,-272.74,-54,559,-940,23.1,4.7,-19.3,23.1,4.9,-18.9,5.73,2.48,-25.4,27.8
2012-04-20 01:42:00,0.0,1.9094,0.0008,402.64,0.34,178.8,38.9,138.11,28.35,24.62,36.33,0.04,-272.74,-272.74,-55,559,-940,23.2,4.7,-19.2,23.2,4.9,-18.7,5.73,2.30,-25.4,27.8
2012-04-20 01:43:00,0.0,1.9102,0.0010,402.82,0.33,167.6,30.0,138.11,28.37,24.61,36.33,0.04,-272.74,-272.74,-54,559,-940,23.2,4.8,-19.1,23.2,5.0,-18.6,5.73,2.45,-25.3,27.9
2012-04-20 01:44:00,0.0,1.9100,0.0009,402.75,0.37,172.6,32.3,138.10,28.39,24.62,36.33,0.04,-272.74,-272.74,-55,559,-940,23.3,4.8,-19.0,23.2,5.0,-18.6,5.73,2.42,-25.2,28.0
2012-04-20 01:45:00,0.0,1.9103,0.0011,402.72,0.41,177.3,34.8,138.10,28.40,24.62,36.33,0.04,-272.74,-272.74,-55,559,-940,23.3,4.8,-19.0,23.3,5.0,-18.5,5.73,2.30,-25.1,28.1
2012-04-20 01:46:00,0.0,1.9106,0.0010,402.84,0.33,190.4,34.8,138.10,28.42,24.62,36.32,0.04,-272.74,-272.73,-54,559,-940,23.3,4.8,-19.0,23.3,5.0,-18.5,5.73,2.48,-25.0,28.1
2012-04-20 01:47:00,0.0,1.9110,0.0010,402.86,0.37,182.2,35.9,138.10,28.44,24.62,36.33,0.04,-272.74,-272.74,-55,559,-940,23.3,4.8,-18.9,23.3,5.0,-18.5,5.73,2.35,-25.0,27.9
2012-04-20 01:48:00,0.0,1.9116,0.0010,402.80,0.41,190.1,44.5,138.10,28.46,24.62,36.33,0.04,-272.74,-272.74,-55,560,-940,23.3,4.8,-18.8,23.3,5.0,-18.4,5.73,2.46,-25.0,27.4
2012-04-20 01:49:00,0.0,1.9113,0.0008,402.82,0.33,175.3,40.2,138.11,28.47,24.62,36.33,0.04,-272.74,-272.74,-54,560,-940,23.3,4.8,-18.9,23.3,5.0,-18.4,5.73,2.30,-25.1,27.1
2012-04-20 01:50:00,0.0,1.9114,0.0010,402.84,0.31,180.1,36.9,138.11,28.47,24.62,36.33,0.04,-272.74,-272.74,-55,560,-940,23.3,4.8,-18.9,23.3,5.0,-18.5,5.73,2.39,-25.2,26.8
2012-04-20 01:51:00,0.0,1.9112,0.0010,402.87,0.35,170.5,39.7,138.12,28.47,24.62,36.33,0.04,-272.73,-272.74,-55,560,-940,23.3,4.8,-18.9,23.2,5.0,-18.6,5.73,2.47,-25.2,26.5
2012-04-20 01:52:00,0.0,1.9105,0.0012,402.92,0.29,153.9,39.8,138.12,28.47,24.62,36.32,0.04,-272.74,-272.74,-55,560,-940,23.3,4.7,-19.1,23.2,4.9,-18.7,5.73,2.46,-25.3,26.3
2012-04-20 01:53:00,0.0,1.9098,0.0010,402.90,0.28,142.7,46.3,138.12,28.46,24.62,36.32,0.04,-272.74,-272.74,-55,560,-941,23.3,4.7,-19.2,23.2,4.9,-18.7,5.73,2.41,-25.4,26.3
2012-04-20 01:54:00,0.0,1.9091,0.0008,402.94,0.37,136.3,40.0,138.13,28.44,24.62,36.32,0.04,-272.73,-272.74,-55,560,-940,23.2,4.7,-19.3,23.1,4.9,-18.8,5.73,2.37,-25.5,26.1
2012-04-20 01:55:00,0.0,1.9082,0.0010,402.80,0.31,143.5,32.0,138.13,28.43,24.62,36.32,0.04,-272.73,-272.74,-55,560,-941,23.2,4.7,-19.3,23.1,4.9,-18.9,5.73,2.35,-25.6,25.9
2012-04-20 01:56:00,0.0,1.9088,0.0008,402.71,0.31,129.0,30.0,138.13,28.41,24.62,36.32,0.04,-272.74,-272.73,-55,560,-941,23.2,4.7,-19.3,23.1,4.9,-18.9,5.73,2.36,-25.6,25.7
2012-04-20 01:57:00,0.0,1.9087,0.0010,402.47,0.34,125.4,35.0,138.14,28.40,24.62,36.33,0.04,-272.74,-272.74,-55,559,-940,23.1,4.7,-19.2,23.0,4.9,-18.9,5.73,2.38,-25.7,25.6
2012-04-20 01:58:00,0.0,1.9082,0.0010,402.44,0.37,126.3,32.7,138.14,28.38,24.62,36.32,0.04,-272.74,-272.74,-55,560,-941,23.1,4.7,-19.3,23.0,4.9,-19.0,5.73,2.40,-25.7,25.5
2012-04-20 01:59:00,0.0,1.9079,0.0010,402.40,0.35,109.3,35.9,138.14,28.36,24.62,36.31,0.04,-272.74,-272.73,-55,559,-940,23.1,4.7,-19.3,22.9,4.9,-19.0,5.73,2.46,-25.8,25.8
2012-04-20 02:00:00,0.0,1.9078,0.0010,402.32,0.32,117.3,34.3,138.14,28.35,24.61,36.32,0.04,-272.73,-272.74,-55,559,-940,23.0,4.7,-19.4,22.9,4.9,-19.0,5.73,2.47,-25.8,26.4
2012-04-20 02:01:00,0.0,1.9083,0.0009,402.48,0.37,126.1,36.6,138.14,28.34,24.62,36.32,0.04,-272.74,-272.74,-55,559,-940,23.1,4.7,-19.4,23.0,4.8,-19.1,5.73,2.28,-25.7,26.8
2012-04-20 02:02:00,0.0,1.9087,0.0009,402.58,0.38,139.6,33.6,138.13,28.33,24.62,36.32,0.04,-272.74,-272.74,-55,559,-940,23.1,4.6,-19.5,23.0,4.8,-19.1,5.73,2.51,-25.6,27.0
2012-04-20 02:03:00,0.0,1.9083,0.0009,402.62,0.36,145.1,43.6,138.13,28.33,24.62,36.32,0.04,-272.73,-272.74,-55,559,-940,23.1,4.6,-19.5,23.1,4.8,-19.1,5.73,2.28,-25.5,27.3
2012-04-20 02:04:00,0.0,1.9081,0.0008,402.57,0.33,145.5,36.0,138.12,28.34,24.62,36.33,0.04,-272.73,-272.74,-55,559,-940,23.1,4.6,-19.5,23.1,4.8,-19.1,5.73,2.49,-25.4,27.4
2012-04-20 02:05:00,0.0,1.9083,0.0009,402.75,0.32,163.0,36.7,138.12,28.35,24.62,36.32,0.04,-272.74,-272.74,-55,559,-940,23.2,4.6,-19.5,23.1,4.8,-19.1,5.73,2.35,-25.3,27.5
2012-04-20 02:06:00,0.0,1.9083,0.0009,402.74,0.34,164.8,38.2,138.11,28.36,24.62,36.32,0.04,-272.73,-272.73,-55,559,-940,23.2,4.6,-19.4,23.2,4.8,-19.0,5.73,2.38,-25.2,27.7
2012-04-20 02:07:00,0.0,1.9079,0.0008,402.71,0.35,163.1,45.0,138.11,28.38,24.62,36.32,0.04,-272.74,-272.74,-55,559,-940,23.2,4.6,-19.5,23.2,4.8,-19.0,5.73,2.47,-25.1,27.8
2012-04-20 02:08:00,0.0,1.9076,0.0008,402.62,0.36,179.9,30.4,138.11,28.39,24.62,36.33,0.04,-272.74,-272.74,-54,559,-940,23.3,4.6,-19.4,23.2,4.8,-19.1,5.73,2.30,-25.1,27.9
2012-04-20 02:09:00,0.0,1.9074,0.0010,402.56,0.40,181.4,37.1,138.11,28.41,24.62,36.33,0.04,-272.74,-272.74,-55,560,-940,23.3,4.6,-19.4,23.3,4.8,-19.0,5.73,2.46,-25.0,28.0
2012-04-20 02:10:00,0.0,1.9078,0.0009,402.59,0.38,186.4,39.5,138.10,28.43,24.62,36.33,0.04,-272.74,-272.74,-54,559,-940,23.3,4.6,-19.3,23.3,4.8,-18.9,5.73,2.40,-24.9,28.0
2012-04-20 02:11:00,0.0,1.9082,0.0010,402.71,0.34,194.0,40.2,138.10,28.45,24.62,36.32,0.04,-272.73,-272.74,-55,560,-940,23.4,4.6,-19.3,23.3,4.8,-18.9,5.73,2.32,-24.8,28.1
2012-04-20 02:12:00,0.0,1.9079,0.0010,402.76,0.39,198.2,40.9,138.10,28.47,24.62,36.33,0.04,-272.74,-272.74,-55,559,-940,23.4,4.6,-19.4,23.4,4.8,-18.9,5.73,2.48,-24.8,28.2
2012-04-20 02:13:00,0.0,1.9086,0.0012,402.78,0.37,199.3,36.2,138.10,28.49,24.62,36.33,0.04,-272.74,-272.74,-54,560,-940,23.5,4.6,-19.4,23.4,4.8,-19.0,5.73,2.34,-24.7,27.9
2012-04-20 02:14:00,0.0,1.9083,0.0009,402.83,0.36,209.7,36.0,138.10,28.51,24.62,36.33,0.04,-272.74,-272.74,-55,560,-940,23.5,4.5,-19.4,23.4,4.7,-19.0,5.73,2.47,-24.7,27.3
2012-04-20 02:15:00,0.0,1.9083,0.0010,402.83,0.32,201.2,35.5,138.10,28.52,24.62,36.33,0.04,-272.74,-272.74,-55,560,-940,23.4,4.5,-19.5,23.4,4.7,-19.1,5.73,2.30,-24.7,27.0
2012-04-20 02:16:00,0.0,1.9081,0.0010,402.77,0.36,205.2,37.1,138.11,28.52,24.62,36.33,0.04,-272.74,-272.73,-55,561,-941,23.5,4.5,-19.5,23.4,4.7,-19.1,5.73,2.39,-24.8,26.7
2012-04-20 02:17:00,0.0,1.9078,0.0010,402.68,0.35,190.1,38.2,138.11,28.52,24.62,36.33,0.04,-272.74,-272.74,-55,561,-941,23.4,4.5,-19.6,23.3,4.7,-19.2,5.73,2.47,-24.9,26.5